Regional Weather Roundup
Issued by NWS

Home | Current Version | Previous Version | Graphics & Text | Print | Product List | Glossary On
Versions: 1 2 3 4 5 6 7 8 9 10 11 12 13 14 15 16 17 18 19 20 21 22 23 24 25 26 27 28 29 30 31 32 33 34 35 36 37 38 39 40 41 42 43 44 45 46 47 48 49 50
000
ASUS43 KMPX 231701
RWRMN
WEATHER ROUNDUP FOR MINNESOTA
NATIONAL WEATHER SERVICE TWIN CITIES/CHANHASSEN MN
1100 AM CST MON JAN 23 2017


NOTE: "FAIR" INDICATES FEW OR NO CLOUDS BELOW 12,000 FEET WITH NO
SIGNIFICANT WEATHER AND/OR OBSTRUCTIONS TO VISIBILITY. N/A MEANS
CURRENT SKY AND/OR WEATHER CONDITIONS ARE NOT AVAILABLE.

MNZ060>063-068>070-231800-
   Twin Cities Metro

CITY           SKY/WX    TMP DP  RH WIND       PRES   REMARKS
TWIN CITIES    CLOUDY    34  30  85 SW6       29.84R WCI  29
ST PAUL        CLOUDY    35  33  92 SW5       29.85R FOG     WCI  31
CRYSTAL        CLOUDY    34  30  85 W6        29.83R FOG     WCI  29
BLAINE         CLOUDY    36  36 100 CALM      29.83R FOG
LAKEVILLE      CLOUDY    32  32 100 W6        29.85R FOG     WCI  26
EDEN PRAIRIE   CLOUDY    34  30  85 SW6       29.84R FOG     WCI  29
SOUTH ST PAUL  CLOUDY    35  33  92 W3        29.84R
LAKE ELMO      CLOUDY    34  32  93 CALM      29.84R FOG
$$
MNZ001>005-007-008-013>017-022>024-027-028-231800-
   Northwest Minnesota

CITY           SKY/WX    TMP DP  RH WIND       PRES   REMARKS
BEMIDJI        CLOUDY    31  26  80 W9        29.78R WCI  23
HALLOCK        CLOUDY    32  28  86 W13       29.76S WCI  22
ROSEAU         MOSUNNY   32  27  80 SW7       29.76R WCI  26
WARROAD        CLOUDY    32  28  86 SW7       29.75R WCI  26
THIEF RVR FALL CLOUDY    30  26  85 W15       29.80R WCI  19
CROOKSTON      CLOUDY    30  27  86 NW9       29.81S WCI  22
FOSSTON        CLOUDY    30  28  93 SW10      29.80R WCI  21
DETROIT LAKES  MOSUNNY   32  28  86 W6        29.82R WCI  26
MOORHEAD       CLOUDY    34  28  80 W6        29.83F WCI  29
PARK RAPIDS    CLOUDY    32  23  69 W9        29.79R WCI  24
MAHNOMEN       CLOUDY    31  27  88 W12       29.81R WCI  21
$$
MNZ006-009>011-018-025>026-231800-
   North Central Minnesota

CITY           SKY/WX    TMP DP  RH WIND       PRES   REMARKS
BAUDETTE       CLOUDY    32  30  92 SW7       29.74R FOG     WCI  26
FLAG ISLAND    CLOUDY    32  30  93 SW3       29.72S FOG
INTL FALLS     CLOUDY    33  30  88 VRB5      29.75R FOG     WCI  29
WASKISH        CLOUDY    32  30  93 SW6       29.77R WCI  26
BIG FORK       CLOUDY    34  32  93 CALM      29.76S
LONGVILLE      CLOUDY    30  30 100 CALM      29.79R FOG
GRAND RAPIDS   CLOUDY    34  32  92 NW5       29.79R FOG     WCI  30
CRANE LAKE     CLOUDY    34  32  93 CALM      29.78S
ORR            CLOUDY    32  30  93 CALM      29.74S
COOK           CLOUDY    34  34 100 CALM      29.76S
WALKER         CLOUDY    31  25  78 W6        29.80R WCI  25
$$
MNZ012-019>021-037-231800-
   Northeast Minnesota

CITY           SKY/WX    TMP DP  RH WIND       PRES   REMARKS
DULUTH         PTSUNNY   36  32  85 N6        29.76S
ELY            CLOUDY    34  34 100 CALM      29.75S
HIBBING        CLOUDY    32  32 100 CALM      29.75F
EVELETH        CLOUDY    35  34  96 W3        29.76F
DULUTH HARBOR  CLOUDY    37  34  87 CALM      29.80S
TWO HARBORS    CLOUDY    39  36  87 CALM      29.75S
SILVER BAY     CLOUDY    37  36  93 CALM      29.75R
GRAND MARAIS     N/A     39  34  82 SE3       29.78R
G MARAIS ARPRT CLOUDY    32  28  86 CALM      29.74R
$$
MNZ029>031-032-039>041-046>048-054>057-064-231800-
   West Central Minnesota

CITY           SKY/WX    TMP DP  RH WIND       PRES   REMARKS
FERGUS FALLS   CLOUDY    30  27  86 W8        29.87S WCI  23
WHEATON        CLOUDY    37  32  81 W8        29.87R
MORRIS         CLOUDY    34  28  80 NW9       29.84R WCI  26
ALEXANDRIA     CLOUDY    31  27  85 NW7       29.83R WCI  24
ELBOW LAKE     CLOUDY    31  28  85 NW9       29.84S FOG     WCI  23
WADENA         CLOUDY    30  25  80 W6        29.81S WCI  24
GLENWOOD       CLOUDY    30  27  86 NW10      29.83S WCI  21
APPLETON       CLOUDY    34  28  80 W5        29.85S WCI  30
ORTONVILLE     CLOUDY    32  27  80 CALM      29.85S
MADISON        CLOUDY    36  30  80 W8        29.86S
WILLMAR        CLOUDY    34  28  80 CALM      29.86R
$$
MNZ033>034-036-042>043-049>051-058-059-231800-
   Central Minnesota

CITY           SKY/WX    TMP DP  RH WIND       PRES   REMARKS
ST CLOUD       CLOUDY    33  31  92 W7        29.83R WCI  27
SAUK CENTRE    CLOUDY    31  27  84 W7        29.83R WCI  25
PAYNESVILLE    CLOUDY    32  30  92 NW6       29.84S WCI  26
AITKIN         MIX PCPN  36  30  80 CALM      29.78R
PINE RIVER     CLOUDY    30  28  93 NW3       29.84R
BRAINERD       CLOUDY    31  30  96 W6        29.81R FOG     WCI  25
STAPLES        CLOUDY    30  27  86 NW6       29.82R WCI  24
LONG PRAIRIE   CLOUDY    32  27  80 CALM      29.83R
LITTLE FALLS   CLOUDY    32  28  86 W7        29.84R WCI  26
LITCHFIELD     CLOUDY    34  28  80 NW8       29.84S WCI  27
BUFFALO        CLOUDY    33  31  93 SW5       29.85R FOG     WCI  28
MAPLE LAKE     CLOUDY    34  32  95 W5        29.85R FOG     WCI  29
HUTCHINSON     CLOUDY    33  30  86 W7        29.85S WCI  27
$$
MNZ037-044-045-052-053-231800-
   East Central Minnesota

CITY           SKY/WX    TMP DP  RH WIND       PRES   REMARKS
PRINCETON      CLOUDY    36  34  93 W3        29.83R FOG
MORA           CLOUDY    34  32  93 CALM      29.82R FOG
CAMBRIDGE      CLOUDY    36  36 100 CALM      29.80R FOG
RUSH CITY      CLOUDY    34  32  93 CALM      29.81R FOG
MOOSE LAKE     CLOUDY    34  32  93 CALM      29.77S
HINCKLEY       CLOUDY    34  34 100 CALM      29.80R
CLOQUET        CLOUDY    36  34  93 CALM      29.77S
MCGREGOR       CLOUDY    34  32  93 W3        29.79R VSB 1
$$
MNZ071>073-080-081-089-090-097-098-231800-
   Southwest Minnesota

CITY           SKY/WX    TMP DP  RH WIND       PRES   REMARKS
MONTEVIDEO     CLOUDY    34  34 100 NW5       29.88R WCI  30
GRANITE FALLS  CLOUDY    34  31  92 W6        29.88R WCI  28
CANBY          CLOUDY    32  29  88 CALM      29.87S
MARSHALL       CLOUDY    32  28  85 NW8       29.87R WCI  25
REDWOOD FALLS  CLOUDY    33  27  78 NW5       29.86R WCI  29
OLIVIA         CLOUDY    34  30  86 W9        29.86R WCI  26
PIPESTONE      CLOUDY    28  28 100 W6        29.83F FOG     WCI  22
WINDOM         CLOUDY    32  30  93 W8        29.86S WCI  25
WORTHINGTON    CLOUDY    30  28  92 W6          N/A  WCI  24
JACKSON        CLOUDY    32  28  86 NW8       29.86S WCI  25
TRACY          CLOUDY    32  29  90 W5        29.86S WCI  27
SLAYTON        CLOUDY    29  28  96 W9        29.86S WCI  21
$$
MNZ065>067-074>077-082>085-091>093-231800-
   South Central Minnesota

CITY           SKY/WX    TMP DP  RH WIND       PRES   REMARKS
MANKATO        CLOUDY    33  28  81 W6        29.87R WCI  28
NEW ULM        CLOUDY    34  28  80 NW6       29.86R WCI  29
ST JAMES       CLOUDY    32  30  93 W9        29.88S WCI  24
FAIRMONT       CLOUDY    32  29  88 NW6       29.88R WCI  26
GLENCOE        CLOUDY    33  32  94 NW6       29.84S WCI  28
OWATONNA       CLOUDY    34  30  86 W3        29.85R FOG
WASECA         CLOUDY    32  28  86 W6        29.88R WCI  26
ALBERT LEA     CLOUDY    34  30  86 NW3       29.86R
$$
MNZ078>079-086>088-094>096-231800-
   Southeast Minnesota

CITY           SKY/WX    TMP DP  RH WIND       PRES   REMARKS
ROCHESTER      LGT SNOW  33  32  96 W7        29.83S FOG     WCI  27
RED WING       LGT SNOW  36  32  87 W3        29.83S
STANTON        CLOUDY    35  32  88 CALM      29.84R FOG
DODGE CENTER   LGT SNOW  32  30  93 CALM      29.84R
WINONA         CLOUDY    34  34 100 CALM      29.85R FOG
AUSTIN         CLOUDY    34  28  80 W7        29.85R WCI  28
PRESTON        CLOUDY    32  31  94 W3        29.84R FOG
$$
ABBREVIATIONS USED IN REMARKS
   TC - TEMPERATURES IN CELSIUS
  WCI - WIND CHILL INDEX
   HX - HEAT INDEX
  VSB - VISIBILITY
$$




USA.gov is the U.S. government's official web portal to all federal, state and local government web resources and services.